Location: Newark
(5.8900°S, 42.6378°W)
Time: 21:12:09
(UTC+00:00)

Transit 4A - All Passes

Search period start: 14 October 2019 00:00
Search period end: 24 October 2019 00:00
Orbit: 866 x 978 km, 66.8° (Epoch: 13 October)

Date Brightness Start Highest point End Pass type
(mag) Time Alt. Az. Time Alt. Az. Time Alt. Az.
14 Oct - 06:20:45 10° SSE 06:26:02 27° ESE 06:31:19 10° NE visible
14 Oct - 08:06:51 10° SW 08:12:08 28° WNW 08:17:27 10° NNW visible
14 Oct - 19:21:15 10° NNW 19:27:02 79° ENE 19:32:51 10° SSE daylight
15 Oct - 06:29:18 10° S 06:35:22 45° ESE 06:41:25 10° NE visible
15 Oct - 08:17:40 10° WSW 08:21:25 16° WNW 08:25:10 10° NW daylight
15 Oct - 19:30:38 10° NNW 19:36:18 60° WSW 19:42:02 10° S daylight
16 Oct - 06:38:18 10° SSW 06:44:41 77° ESE 06:51:03 10° NNE visible
16 Oct - 17:55:52 10° NNE 17:59:37 18° ENE 18:03:21 10° ESE daylight
16 Oct - 19:40:27 10° NW 19:45:37 34° WSW 19:50:50 10° S daylight
17 Oct - 05:06:09 10° SE 05:07:39 11° ESE 05:09:10 10° E visible
17 Oct - 06:47:39 10° SSW 06:53:58 65° WNW 07:00:17 10° N visible
17 Oct - 18:03:50 10° N 18:08:52 31° ENE 18:13:54 10° SE daylight
17 Oct - 19:50:53 10° WNW 19:54:58 20° WSW 19:59:03 10° SSW daylight
18 Oct - 05:12:38 10° SSE 05:17:04 20° ESE 05:21:30 10° ENE visible
18 Oct - 06:57:23 10° SW 07:03:14 39° WNW 07:09:06 10° N visible
18 Oct - 18:12:29 10° N 18:18:06 55° ENE 18:23:46 10° SSE daylight
18 Oct - 20:03:10 10° WSW 20:04:21 11° WSW 20:05:33 10° SW daylight
19 Oct - 05:20:48 10° S 05:26:26 33° ESE 05:32:03 10° NE visible
19 Oct - 07:07:39 10° WSW 07:12:31 23° WNW 07:17:22 10° NNW visible
19 Oct - 18:21:36 10° NNW 18:27:22 85° WSW 18:33:12 10° SSE daylight
20 Oct - 05:29:32 10° S 05:35:45 55° ESE 05:41:59 10° NNE visible
20 Oct - 07:19:03 10° W 07:21:47 13° WNW 07:24:32 10° NW visible
20 Oct - 16:48:42 10° NE 16:50:41 12° ENE 16:52:41 10° E daylight
20 Oct - 18:31:07 10° NW 18:36:40 49° WSW 18:42:16 10° S daylight
21 Oct - 05:38:39 10° SSW 05:45:03 89° WNW 05:51:27 10° NNE night (unlit)
21 Oct - 16:55:38 10° NNE 16:59:57 22° ENE 17:04:17 10° ESE daylight
21 Oct - 18:41:08 10° NW 18:45:59 28° WSW 18:50:54 10° S daylight
22 Oct - 04:05:02 10° SE 04:08:05 14° ESE 04:11:08 10° E night (unlit)
22 Oct - 05:48:08 10° SSW 05:54:20 54° WNW 06:00:32 10° N night (unlit)
22 Oct - 17:03:54 10° N 17:09:12 38° ENE 17:14:32 10° SE daylight
22 Oct - 18:51:55 10° WNW 18:55:21 16° WSW 18:58:47 10° SSW daylight
23 Oct - 04:12:30 10° SSE 04:17:29 24° ESE 04:22:27 10° ENE night (unlit)
23 Oct - 05:58:02 10° SW 06:03:36 32° WNW 06:09:11 10° N night (unlit)
23 Oct - 17:12:43 10° NNW 17:18:27 68° ENE 17:24:14 10° SSE daylight
